CMS-02 (GSAT-24)

Last updated on Sun Jun 21 2026 00:03:08 GMT+0000 (Coordinated Universal Time)

1 52903U 22067A 26171.40849205 -.00000169 00000+0 00000+0 0 9990 2 52903 0.0494 253.6008 0001803 114.3593 130.7262 1.00271954 14645
UTC large
Height (km)
Speed (km/s)
/
Latitude / Longitude
Inclination (degrees)
Orbital Period (minutes)
Azimuth
Elevation
Range (km)
Doppler Factor

Next 0 passes for location: London (51.5072 / 0.1276)

No passes found over London.
CMS-02 (GSAT-24)